Year,Month,Day,Hour,Minute,Value (Times are PST for temperature in C)
2019,09,25,00,00,10.50
2019,09,25,00,01,10.40
2019,09,25,00,02,10.40
2019,09,25,00,03,10.40
2019,09,25,00,04,10.40
2019,09,25,00,05,10.40
2019,09,25,00,06,10.40
2019,09,25,00,07,10.40
2019,09,25,00,08,10.40
2019,09,25,00,09,10.40
2019,09,25,00,10,10.40
2019,09,25,00,11,10.30
2019,09,25,00,12,10.30
2019,09,25,00,13,10.30
2019,09,25,00,14,10.30
2019,09,25,00,15,10.30
2019,09,25,00,16,10.30
2019,09,25,00,17,10.30
2019,09,25,00,18,10.30
2019,09,25,00,19,10.20
2019,09,25,00,20,10.20
2019,09,25,00,21,10.20
2019,09,25,00,22,10.20
2019,09,25,00,23,10.20
2019,09,25,00,24,10.20
2019,09,25,00,25,10.20
2019,09,25,00,26,10.20
2019,09,25,00,27,10.20
2019,09,25,00,28,10.10
2019,09,25,00,29,10.10
2019,09,25,00,30,10.10
2019,09,25,00,31,10.10
2019,09,25,00,32,10.10
2019,09,25,00,33,10.10
2019,09,25,00,34,10.10
2019,09,25,00,35,10.10
2019,09,25,00,36,10.10
2019,09,25,00,37,10.10
2019,09,25,00,38,10.10
2019,09,25,00,39,10.10
2019,09,25,00,40,10.10
2019,09,25,00,41,10.10
2019,09,25,00,42,10.00
2019,09,25,00,43,10.00
2019,09,25,00,44,10.00
2019,09,25,00,45,10.00
2019,09,25,00,46,10.00
2019,09,25,00,47,10.00
2019,09,25,00,48,10.00
2019,09,25,00,49,10.00
2019,09,25,00,50,10.00
2019,09,25,00,51,9.90
2019,09,25,00,52,9.90
2019,09,25,00,53,9.90
2019,09,25,00,54,9.90
2019,09,25,00,55,9.90
2019,09,25,00,56,9.90
2019,09,25,00,57,9.90
2019,09,25,00,58,9.90
2019,09,25,00,59,9.90
2019,09,25,01,00,9.90
2019,09,25,01,01,9.90
2019,09,25,01,02,9.90
2019,09,25,01,03,9.90
2019,09,25,01,04,9.90
2019,09,25,01,05,9.90
2019,09,25,01,06,9.80
2019,09,25,01,07,9.80
2019,09,25,01,08,9.80
2019,09,25,01,09,9.80
2019,09,25,01,10,9.80
2019,09,25,01,11,9.70
2019,09,25,01,12,9.70
2019,09,25,01,13,9.70
2019,09,25,01,14,9.70
2019,09,25,01,15,9.70
2019,09,25,01,16,9.70
2019,09,25,01,17,9.70
2019,09,25,01,18,9.70
2019,09,25,01,19,9.70
2019,09,25,01,20,9.70
2019,09,25,01,21,9.60
2019,09,25,01,22,9.60
2019,09,25,01,23,9.60
2019,09,25,01,24,9.50
2019,09,25,01,25,9.50
2019,09,25,01,26,9.50
2019,09,25,01,27,9.50
2019,09,25,01,28,9.50
2019,09,25,01,29,9.40
2019,09,25,01,30,9.40
2019,09,25,01,31,9.40
2019,09,25,01,32,9.40
2019,09,25,01,33,9.40
2019,09,25,01,34,9.40
2019,09,25,01,35,9.40
2019,09,25,01,36,9.40
2019,09,25,01,37,9.30
2019,09,25,01,38,9.30
2019,09,25,01,39,9.30
2019,09,25,01,40,9.30
2019,09,25,01,41,9.30
2019,09,25,01,42,9.30
2019,09,25,01,43,9.30
2019,09,25,01,44,9.30
2019,09,25,01,45,9.30
2019,09,25,01,46,9.20
2019,09,25,01,47,9.20
2019,09,25,01,48,9.20
2019,09,25,01,49,9.20
2019,09,25,01,50,9.20
2019,09,25,01,51,9.20
2019,09,25,01,52,9.20
2019,09,25,01,53,9.20
2019,09,25,01,54,9.20
2019,09,25,01,55,9.20
2019,09,25,01,56,9.20
2019,09,25,01,57,9.20
2019,09,25,01,58,9.20
2019,09,25,01,59,9.20
2019,09,25,02,00,9.20
2019,09,25,02,01,9.20
2019,09,25,02,02,9.20
2019,09,25,02,03,9.20
2019,09,25,02,04,9.20
2019,09,25,02,05,9.20
2019,09,25,02,06,9.20
2019,09,25,02,07,9.20
2019,09,25,02,08,9.20
2019,09,25,02,09,9.20
2019,09,25,02,10,9.20
2019,09,25,02,11,9.20
2019,09,25,02,12,9.20
2019,09,25,02,13,9.20
2019,09,25,02,14,9.20
2019,09,25,02,15,9.20
2019,09,25,02,16,9.20
2019,09,25,02,17,9.20
2019,09,25,02,18,9.20
2019,09,25,02,19,9.20
2019,09,25,02,20,9.20
2019,09,25,02,21,9.10
2019,09,25,02,22,9.10
2019,09,25,02,23,9.10
2019,09,25,02,24,9.10
2019,09,25,02,25,9.10
2019,09,25,02,26,9.00
2019,09,25,02,27,9.00
2019,09,25,02,28,9.00
2019,09,25,02,29,9.00
2019,09,25,02,30,9.00
2019,09,25,02,31,9.00
2019,09,25,02,32,9.00
2019,09,25,02,33,9.00
2019,09,25,02,34,9.00
2019,09,25,02,35,9.00
2019,09,25,02,36,8.90
2019,09,25,02,37,8.90
2019,09,25,02,38,8.90
2019,09,25,02,39,8.90
2019,09,25,02,40,8.90
2019,09,25,02,41,8.90
2019,09,25,02,42,8.90
2019,09,25,02,43,8.90
2019,09,25,02,44,8.90
2019,09,25,02,45,8.80
2019,09,25,02,46,8.80
2019,09,25,02,47,8.80
2019,09,25,02,48,8.80
2019,09,25,02,49,8.80
2019,09,25,02,50,8.80
2019,09,25,02,51,8.80
2019,09,25,02,52,8.80
2019,09,25,02,53,8.80
2019,09,25,02,54,8.80
2019,09,25,02,55,8.80
2019,09,25,02,56,8.80
2019,09,25,02,57,8.80
2019,09,25,02,58,8.80
2019,09,25,02,59,8.80
2019,09,25,03,00,8.70
2019,09,25,03,01,8.70
2019,09,25,03,02,8.70
2019,09,25,03,03,8.70
2019,09,25,03,04,8.70
2019,09,25,03,05,8.70
2019,09,25,03,06,8.70
2019,09,25,03,07,8.70
2019,09,25,03,08,8.70
2019,09,25,03,09,8.70
2019,09,25,03,10,8.70
2019,09,25,03,11,8.70
2019,09,25,03,12,8.70
2019,09,25,03,13,8.70
2019,09,25,03,14,8.70
2019,09,25,03,15,8.70
2019,09,25,03,16,8.70
2019,09,25,03,17,8.70
2019,09,25,03,18,8.70
2019,09,25,03,19,8.70
2019,09,25,03,20,8.70
2019,09,25,03,21,8.70
2019,09,25,03,22,8.70
2019,09,25,03,23,8.70
2019,09,25,03,24,8.70
2019,09,25,03,25,8.60
2019,09,25,03,26,8.60
2019,09,25,03,27,8.60
2019,09,25,03,28,8.60
2019,09,25,03,29,8.60
2019,09,25,03,30,8.60
2019,09,25,03,31,8.60
2019,09,25,03,32,8.60
2019,09,25,03,33,8.60
2019,09,25,03,34,8.60
2019,09,25,03,35,8.60
2019,09,25,03,36,8.60
2019,09,25,03,37,8.60
2019,09,25,03,38,8.60
2019,09,25,03,39,8.60
2019,09,25,03,40,8.60
2019,09,25,03,41,8.60
2019,09,25,03,42,8.50
2019,09,25,03,43,8.60
2019,09,25,03,44,8.60
2019,09,25,03,45,8.60
2019,09,25,03,46,8.60
2019,09,25,03,47,8.60
2019,09,25,03,48,8.60
2019,09,25,03,49,8.60
2019,09,25,03,50,8.50
2019,09,25,03,51,8.50
2019,09,25,03,52,8.50
2019,09,25,03,53,8.50
2019,09,25,03,54,8.50
2019,09,25,03,55,8.40
2019,09,25,03,56,8.40
2019,09,25,03,57,8.40
2019,09,25,03,58,8.40
2019,09,25,03,59,8.40
2019,09,25,04,00,8.40
2019,09,25,04,01,8.40
2019,09,25,04,02,8.40
2019,09,25,04,03,8.30
2019,09,25,04,04,8.30
2019,09,25,04,05,8.30
2019,09,25,04,06,8.30
2019,09,25,04,07,8.30
2019,09,25,04,08,8.30
2019,09,25,04,09,8.40
2019,09,25,04,10,8.40
2019,09,25,04,11,8.40
2019,09,25,04,12,8.40
2019,09,25,04,13,8.40
2019,09,25,04,14,8.40
2019,09,25,04,15,8.40
2019,09,25,04,16,8.30
2019,09,25,04,17,8.30
2019,09,25,04,18,8.30
2019,09,25,04,19,8.30
2019,09,25,04,20,8.30
2019,09,25,04,21,8.30
2019,09,25,04,22,8.30
2019,09,25,04,23,8.30
2019,09,25,04,24,8.30
2019,09,25,04,25,8.30
2019,09,25,04,26,8.30
2019,09,25,04,27,8.30
2019,09,25,04,28,8.30
2019,09,25,04,29,8.30
2019,09,25,04,30,8.30
2019,09,25,04,31,8.30
2019,09,25,04,32,8.30
2019,09,25,04,33,8.30
2019,09,25,04,34,8.30
2019,09,25,04,35,8.30
2019,09,25,04,36,8.30
2019,09,25,04,37,8.30
2019,09,25,04,38,8.30
2019,09,25,04,39,8.30
2019,09,25,04,40,8.30
2019,09,25,04,41,8.30
2019,09,25,04,42,8.30
2019,09,25,04,43,8.30
2019,09,25,04,44,8.30
2019,09,25,04,45,8.30
2019,09,25,04,46,8.30
2019,09,25,04,47,8.30
2019,09,25,04,48,8.30
2019,09,25,04,49,8.30
2019,09,25,04,50,8.30
2019,09,25,04,51,8.30
2019,09,25,04,52,8.30
2019,09,25,04,53,8.30
2019,09,25,04,54,8.30
2019,09,25,04,55,8.30
2019,09,25,04,56,8.30
2019,09,25,04,57,8.20
2019,09,25,04,58,8.20
2019,09,25,04,59,8.30
2019,09,25,05,00,8.30
2019,09,25,05,01,8.30
2019,09,25,05,02,8.20
2019,09,25,05,03,8.20
2019,09,25,05,04,8.20
2019,09,25,05,05,8.20
2019,09,25,05,06,8.20
2019,09,25,05,07,8.20
2019,09,25,05,08,8.20
2019,09,25,05,09,8.20
2019,09,25,05,10,8.20
2019,09,25,05,11,8.20
2019,09,25,05,12,8.20
2019,09,25,05,13,8.20
2019,09,25,05,14,8.20
2019,09,25,05,15,8.20
2019,09,25,05,16,8.20
2019,09,25,05,17,8.20
2019,09,25,05,18,8.20
2019,09,25,05,19,8.20
2019,09,25,05,20,8.20
2019,09,25,05,21,8.20
2019,09,25,05,22,8.20
2019,09,25,05,23,8.20
2019,09,25,05,24,8.20
2019,09,25,05,25,8.20
2019,09,25,05,26,8.20
2019,09,25,05,27,8.20
2019,09,25,05,28,8.10
2019,09,25,05,29,8.10
2019,09,25,05,30,8.10
2019,09,25,05,31,8.10
2019,09,25,05,32,8.10
2019,09,25,05,33,8.00
2019,09,25,05,34,8.00
2019,09,25,05,35,8.00
2019,09,25,05,36,8.00
2019,09,25,05,37,8.00
2019,09,25,05,38,8.00
2019,09,25,05,39,8.00
2019,09,25,05,40,8.00
2019,09,25,05,41,8.00
2019,09,25,05,42,8.00
2019,09,25,05,43,8.00
2019,09,25,05,44,7.90
2019,09,25,05,45,7.90
2019,09,25,05,46,7.90
2019,09,25,05,47,7.90
2019,09,25,05,48,7.90
2019,09,25,05,49,7.90
2019,09,25,05,50,7.90
2019,09,25,05,51,7.90
2019,09,25,05,52,7.90
2019,09,25,05,53,7.90
2019,09,25,05,54,7.90
2019,09,25,05,55,7.90
2019,09,25,05,56,7.90
2019,09,25,05,57,7.90
2019,09,25,05,58,7.90
2019,09,25,05,59,7.80
2019,09,25,06,00,7.80
2019,09,25,06,01,7.80
2019,09,25,06,02,7.80
2019,09,25,06,03,7.80
2019,09,25,06,04,7.80
2019,09,25,06,05,7.80
2019,09,25,06,06,7.80
2019,09,25,06,07,7.80
2019,09,25,06,08,7.80
2019,09,25,06,09,7.80
2019,09,25,06,10,7.80
2019,09,25,06,11,7.80
2019,09,25,06,12,7.80
2019,09,25,06,13,7.80
2019,09,25,06,14,7.80
2019,09,25,06,15,7.80
2019,09,25,06,16,7.80
2019,09,25,06,17,7.80
2019,09,25,06,18,7.80
2019,09,25,06,19,7.80
2019,09,25,06,20,7.80
2019,09,25,06,21,7.80
2019,09,25,06,22,7.80
2019,09,25,06,23,7.70
2019,09,25,06,24,7.70
2019,09,25,06,25,7.70
2019,09,25,06,26,7.70
2019,09,25,06,27,7.70
2019,09,25,06,28,7.70
2019,09,25,06,29,7.70
2019,09,25,06,30,7.70
2019,09,25,06,31,7.70
2019,09,25,06,32,7.70
2019,09,25,06,33,7.70
2019,09,25,06,34,7.70
2019,09,25,06,35,7.70
2019,09,25,06,36,7.70
2019,09,25,06,37,7.70
2019,09,25,06,38,7.70
2019,09,25,06,39,7.70
2019,09,25,06,40,7.60
2019,09,25,06,41,7.60
2019,09,25,06,42,7.60
2019,09,25,06,43,7.60
2019,09,25,06,44,7.60
2019,09,25,06,45,7.60
2019,09,25,06,46,7.60
2019,09,25,06,47,7.60
2019,09,25,06,48,7.60
2019,09,25,06,49,7.60
2019,09,25,06,50,7.60
2019,09,25,06,51,7.60
2019,09,25,06,52,7.60
2019,09,25,06,53,7.60
2019,09,25,06,54,7.60
2019,09,25,06,55,7.60
2019,09,25,06,56,7.60
2019,09,25,06,57,7.60
2019,09,25,06,58,7.60
2019,09,25,06,59,7.60
2019,09,25,07,00,7.60
2019,09,25,07,01,7.60
2019,09,25,07,02,7.60
2019,09,25,07,03,7.60
2019,09,25,07,04,7.60
2019,09,25,07,05,7.60
2019,09,25,07,06,7.60
2019,09,25,07,07,7.60
2019,09,25,07,08,7.60
2019,09,25,07,09,7.60
2019,09,25,07,10,7.60
2019,09,25,07,11,7.60
2019,09,25,07,12,7.60
2019,09,25,07,13,7.60
2019,09,25,07,14,7.60
2019,09,25,07,15,7.60
2019,09,25,07,16,7.60
2019,09,25,07,17,7.60
2019,09,25,07,18,7.60
2019,09,25,07,19,7.60
2019,09,25,07,20,7.60
2019,09,25,07,21,7.60
2019,09,25,07,22,7.60
2019,09,25,07,23,7.60
2019,09,25,07,24,7.60
2019,09,25,07,25,7.60
2019,09,25,07,26,7.60
2019,09,25,07,27,7.70
2019,09,25,07,28,7.70
2019,09,25,07,29,7.70
2019,09,25,07,30,7.70
2019,09,25,07,31,7.70
2019,09,25,07,32,7.70
2019,09,25,07,33,7.70
2019,09,25,07,34,7.70
2019,09,25,07,35,7.70
2019,09,25,07,36,7.70
2019,09,25,07,37,7.70
2019,09,25,07,38,7.70
2019,09,25,07,39,7.80
2019,09,25,07,40,7.80
2019,09,25,07,41,7.80
2019,09,25,07,42,7.80
2019,09,25,07,43,7.80
2019,09,25,07,44,7.80
2019,09,25,07,45,7.80
2019,09,25,07,46,7.80
2019,09,25,07,47,7.80
2019,09,25,07,48,7.80
2019,09,25,07,49,7.80
2019,09,25,07,50,7.80
2019,09,25,07,51,7.80
2019,09,25,07,52,7.80
2019,09,25,07,53,7.80
2019,09,25,07,54,7.80
2019,09,25,07,55,7.80
2019,09,25,07,56,7.80
2019,09,25,07,57,7.80
2019,09,25,07,58,7.80
2019,09,25,07,59,7.80
2019,09,25,08,00,7.90
2019,09,25,08,01,7.90
2019,09,25,08,02,7.90
2019,09,25,08,03,7.90
2019,09,25,08,04,7.90
2019,09,25,08,05,7.90
2019,09,25,08,06,7.90
2019,09,25,08,07,7.90
2019,09,25,08,08,8.00
2019,09,25,08,09,8.00
2019,09,25,08,10,8.00
2019,09,25,08,11,8.10
2019,09,25,08,12,8.10
2019,09,25,08,13,8.10
2019,09,25,08,14,8.10
2019,09,25,08,15,8.10
2019,09,25,08,16,8.10
2019,09,25,08,17,8.10
2019,09,25,08,18,8.10
2019,09,25,08,19,8.10
2019,09,25,08,20,8.10
2019,09,25,08,21,8.10
2019,09,25,08,22,8.20
2019,09,25,08,23,8.20
2019,09,25,08,24,8.20
2019,09,25,08,25,8.20
2019,09,25,08,26,8.20
2019,09,25,08,27,8.20
2019,09,25,08,28,8.30
2019,09,25,08,29,8.30
2019,09,25,08,30,8.30
2019,09,25,08,31,8.30
2019,09,25,08,32,8.30
2019,09,25,08,33,8.40
2019,09,25,08,34,8.40
2019,09,25,08,35,8.40
2019,09,25,08,36,8.40
2019,09,25,08,37,8.40
2019,09,25,08,38,8.40
2019,09,25,08,39,8.40
2019,09,25,08,40,8.40
2019,09,25,08,41,8.40
2019,09,25,08,42,8.50
2019,09,25,08,43,8.50
2019,09,25,08,44,8.50
2019,09,25,08,45,8.50
2019,09,25,08,46,8.60
2019,09,25,08,47,8.60
2019,09,25,08,48,8.60
2019,09,25,08,49,8.60
2019,09,25,08,50,8.70
2019,09,25,08,51,8.70
2019,09,25,08,52,8.70
2019,09,25,08,53,8.70
2019,09,25,08,54,8.70
2019,09,25,08,55,8.70
2019,09,25,08,56,8.70
2019,09,25,08,57,8.70
2019,09,25,08,58,8.80
2019,09,25,08,59,8.80
2019,09,25,09,00,8.80
2019,09,25,09,01,8.80
2019,09,25,09,02,8.80
2019,09,25,09,03,8.80
2019,09,25,09,04,8.80
2019,09,25,09,05,8.90
2019,09,25,09,06,8.90
2019,09,25,09,07,8.90
2019,09,25,09,08,8.90
2019,09,25,09,09,8.90
2019,09,25,09,10,9.00
2019,09,25,09,11,9.00
2019,09,25,09,12,9.00
2019,09,25,09,13,9.10
2019,09,25,09,14,9.10
2019,09,25,09,15,9.10
2019,09,25,09,16,9.10
2019,09,25,09,17,9.20
2019,09,25,09,18,9.20
2019,09,25,09,19,9.30
2019,09,25,09,20,9.30
2019,09,25,09,21,9.30
2019,09,25,09,22,9.30
2019,09,25,09,23,9.40
2019,09,25,09,24,9.40
2019,09,25,09,25,9.40
2019,09,25,09,26,9.50
2019,09,25,09,27,9.50
2019,09,25,09,28,9.60
2019,09,25,09,29,9.60
2019,09,25,09,30,9.70
2019,09,25,09,31,9.80
2019,09,25,09,32,9.90
2019,09,25,09,33,10.00
2019,09,25,09,34,10.10
2019,09,25,09,35,10.10
2019,09,25,09,36,10.20
2019,09,25,09,37,10.20
2019,09,25,09,38,10.30
2019,09,25,09,39,10.30
2019,09,25,09,40,10.30
2019,09,25,09,41,10.40
2019,09,25,09,42,10.50
2019,09,25,09,43,10.50
2019,09,25,09,44,10.60
2019,09,25,09,45,10.60
2019,09,25,09,46,10.70
2019,09,25,09,47,10.80
2019,09,25,09,48,10.90
2019,09,25,09,49,11.00
2019,09,25,09,50,11.10
2019,09,25,09,51,11.10
2019,09,25,09,52,11.20
2019,09,25,09,53,11.30
2019,09,25,09,54,11.40
2019,09,25,09,55,11.40
2019,09,25,09,56,11.50
2019,09,25,09,57,11.50
2019,09,25,09,58,11.60
2019,09,25,09,59,11.70
2019,09,25,10,00,11.70
2019,09,25,10,01,11.70
2019,09,25,10,02,11.80
2019,09,25,10,03,11.80
2019,09,25,10,04,11.80
2019,09,25,10,05,11.90
2019,09,25,10,06,11.90
2019,09,25,10,07,12.00
2019,09,25,10,08,12.00
2019,09,25,10,09,12.10
2019,09,25,10,10,12.20
2019,09,25,10,11,12.30
2019,09,25,10,12,12.30
2019,09,25,10,13,12.40
2019,09,25,10,14,12.50
2019,09,25,10,15,12.60
2019,09,25,10,16,12.70
2019,09,25,10,17,12.70
2019,09,25,10,18,12.80
2019,09,25,10,19,12.80
2019,09,25,10,20,12.90
2019,09,25,10,21,13.00
2019,09,25,10,22,13.00
2019,09,25,10,23,13.10
2019,09,25,10,24,13.20
2019,09,25,10,25,13.20
2019,09,25,10,26,13.30
2019,09,25,10,27,13.30
2019,09,25,10,28,13.40
2019,09,25,10,29,13.40
2019,09,25,10,30,13.50
2019,09,25,10,31,13.50
2019,09,25,10,32,13.60
2019,09,25,10,33,13.60
2019,09,25,10,34,13.70
2019,09,25,10,35,13.70
2019,09,25,10,36,13.80
2019,09,25,10,37,13.80
2019,09,25,10,38,13.90
2019,09,25,10,39,13.90
2019,09,25,10,40,13.90
2019,09,25,10,41,14.00
2019,09,25,10,42,14.00
2019,09,25,10,43,14.00
2019,09,25,10,44,14.00
2019,09,25,10,45,14.00
2019,09,25,10,46,14.00
2019,09,25,10,47,14.00
2019,09,25,10,48,14.10
2019,09,25,10,49,14.10
2019,09,25,10,50,14.20
2019,09,25,10,51,14.20
2019,09,25,10,52,14.30
2019,09,25,10,53,14.30
2019,09,25,10,54,14.30
2019,09,25,10,55,14.40
2019,09,25,10,56,14.40
2019,09,25,10,57,14.40
2019,09,25,10,58,14.50
2019,09,25,10,59,14.50
2019,09,25,11,00,14.50
2019,09,25,11,01,14.50
2019,09,25,11,02,14.60
2019,09,25,11,03,14.60
2019,09,25,11,04,14.60
2019,09,25,11,05,14.60
2019,09,25,11,06,14.60
2019,09,25,11,07,14.60
2019,09,25,11,08,14.60
2019,09,25,11,09,14.60
2019,09,25,11,10,14.70
2019,09,25,11,11,14.70
2019,09,25,11,12,14.70
2019,09,25,11,13,14.70
2019,09,25,11,14,14.70
2019,09,25,11,15,14.70
2019,09,25,11,16,14.70
2019,09,25,11,17,14.70
2019,09,25,11,18,14.70
2019,09,25,11,19,14.80
2019,09,25,11,20,14.80
2019,09,25,11,21,14.80
2019,09,25,11,22,14.80
2019,09,25,11,23,14.90
2019,09,25,11,24,14.90
2019,09,25,11,25,14.90
2019,09,25,11,26,14.90
2019,09,25,11,27,14.90
2019,09,25,11,28,14.90
2019,09,25,11,29,14.90
2019,09,25,11,30,15.00
2019,09,25,11,31,15.00
2019,09,25,11,32,15.00
2019,09,25,11,33,15.00
2019,09,25,11,34,15.00
2019,09,25,11,35,15.00
2019,09,25,11,36,15.00
2019,09,25,11,37,15.00
2019,09,25,11,38,15.00
2019,09,25,11,39,15.00
2019,09,25,11,40,15.00
2019,09,25,11,41,15.10
2019,09,25,11,42,15.10
2019,09,25,11,43,15.10
2019,09,25,11,44,15.10
2019,09,25,11,45,15.20
2019,09,25,11,46,15.20
2019,09,25,11,47,15.20
2019,09,25,11,48,15.20
2019,09,25,11,49,15.20
2019,09,25,11,50,15.30
2019,09,25,11,51,15.30
2019,09,25,11,52,15.30
2019,09,25,11,53,15.30
2019,09,25,11,54,15.30
2019,09,25,11,55,15.40
2019,09,25,11,56,15.40
2019,09,25,11,57,15.40
2019,09,25,11,58,15.40
2019,09,25,11,59,15.40
2019,09,25,12,00,15.40
2019,09,25,12,01,15.40
2019,09,25,12,02,15.40
2019,09,25,12,03,15.40
2019,09,25,12,04,15.50
2019,09,25,12,05,15.50
2019,09,25,12,06,15.50
2019,09,25,12,07,15.50
2019,09,25,12,08,15.50
2019,09,25,12,09,15.60
2019,09,25,12,10,15.60
2019,09,25,12,11,15.60
2019,09,25,12,12,15.60
2019,09,25,12,13,15.60
2019,09,25,12,14,15.70
2019,09,25,12,15,15.60
2019,09,25,12,16,15.70
2019,09,25,12,17,15.70
2019,09,25,12,18,15.70
2019,09,25,12,19,15.70
2019,09,25,12,20,15.70
2019,09,25,12,21,15.80
2019,09,25,12,22,15.80
2019,09,25,12,23,15.80
2019,09,25,12,24,15.80
2019,09,25,12,25,15.80
2019,09,25,12,26,15.80
2019,09,25,12,27,15.80
2019,09,25,12,28,15.90
2019,09,25,12,29,15.90
2019,09,25,12,30,15.90
2019,09,25,12,31,15.90
2019,09,25,12,32,15.90
2019,09,25,12,33,15.90
2019,09,25,12,34,15.90
2019,09,25,12,35,15.90
2019,09,25,12,36,15.90
2019,09,25,12,37,16.00
2019,09,25,12,38,16.00
2019,09,25,12,39,16.00
2019,09,25,12,40,16.10
2019,09,25,12,41,16.10
2019,09,25,12,42,16.00
2019,09,25,12,43,16.10
2019,09,25,12,44,16.10
2019,09,25,12,45,16.10
2019,09,25,12,46,16.10
2019,09,25,12,47,16.20
2019,09,25,12,48,16.20
2019,09,25,12,49,16.30
2019,09,25,12,50,16.30
2019,09,25,12,51,16.30
2019,09,25,12,52,16.40
2019,09,25,12,53,16.40
2019,09,25,12,54,16.40
2019,09,25,12,55,16.40
2019,09,25,12,56,16.40
2019,09,25,12,57,16.40
2019,09,25,12,58,16.40
2019,09,25,12,59,16.40
2019,09,25,13,00,16.40
2019,09,25,13,01,16.50
2019,09,25,13,02,16.50
2019,09,25,13,03,16.50
2019,09,25,13,04,16.50
2019,09,25,13,05,16.40
2019,09,25,13,06,16.40
2019,09,25,13,07,16.40
2019,09,25,13,08,16.50
2019,09,25,13,09,16.50
2019,09,25,13,10,16.50
2019,09,25,13,11,16.40
2019,09,25,13,12,16.40
2019,09,25,13,13,16.40
2019,09,25,13,14,16.40
2019,09,25,13,15,16.40
2019,09,25,13,16,16.40
2019,09,25,13,17,16.40
2019,09,25,13,18,16.40
2019,09,25,13,19,16.30
2019,09,25,13,20,16.30
2019,09,25,13,21,16.30
2019,09,25,13,22,16.30
2019,09,25,13,23,16.20
2019,09,25,13,24,16.20
2019,09,25,13,25,16.20
2019,09,25,13,26,16.10
2019,09,25,13,27,16.10
2019,09,25,13,28,16.10
2019,09,25,13,29,16.00
2019,09,25,13,30,16.00
2019,09,25,13,31,16.00
2019,09,25,13,32,16.00
2019,09,25,13,33,16.00
2019,09,25,13,34,16.00
2019,09,25,13,35,16.00
2019,09,25,13,36,16.00
2019,09,25,13,37,16.10
2019,09,25,13,38,16.10
2019,09,25,13,39,16.10
2019,09,25,13,40,16.10
2019,09,25,13,41,16.10
2019,09,25,13,42,16.10
2019,09,25,13,43,16.10
2019,09,25,13,44,16.10
2019,09,25,13,45,16.10
2019,09,25,13,46,16.10
2019,09,25,13,47,16.10
2019,09,25,13,48,16.10
2019,09,25,13,49,16.20
2019,09,25,13,50,16.20
2019,09,25,13,51,16.20
2019,09,25,13,52,16.20
2019,09,25,13,53,16.20
2019,09,25,13,54,16.20
2019,09,25,13,55,16.20
2019,09,25,13,56,16.30
2019,09,25,13,57,16.30
2019,09,25,13,58,16.30
2019,09,25,13,59,16.30
2019,09,25,14,00,16.20
2019,09,25,14,01,16.20
2019,09,25,14,02,16.30
2019,09,25,14,03,16.30
2019,09,25,14,04,16.20
2019,09,25,14,05,16.20
2019,09,25,14,06,16.20
2019,09,25,14,07,16.30
2019,09,25,14,08,16.30
2019,09,25,14,09,16.30
2019,09,25,14,10,16.40
2019,09,25,14,11,16.30
2019,09,25,14,12,16.30
2019,09,25,14,13,16.30
2019,09,25,14,14,16.30
2019,09,25,14,15,16.30
2019,09,25,14,16,16.20
2019,09,25,14,17,16.20
2019,09,25,14,18,16.20
2019,09,25,14,19,16.20
2019,09,25,14,20,16.20
2019,09,25,14,21,16.20
2019,09,25,14,22,16.20
2019,09,25,14,23,16.20
2019,09,25,14,24,16.20
2019,09,25,14,25,16.10
2019,09,25,14,26,16.10
2019,09,25,14,27,16.10
2019,09,25,14,28,16.10
2019,09,25,14,29,16.10
2019,09,25,14,30,16.10
2019,09,25,14,31,16.00
2019,09,25,14,32,16.00
2019,09,25,14,33,15.90
2019,09,25,14,34,15.90
2019,09,25,14,35,15.80
2019,09,25,14,36,15.80
2019,09,25,14,37,15.80
2019,09,25,14,38,15.80
2019,09,25,14,39,15.70
2019,09,25,14,40,15.70
2019,09,25,14,41,15.70
2019,09,25,14,42,15.70
2019,09,25,14,43,15.70
2019,09,25,14,44,15.60
2019,09,25,14,45,15.60
2019,09,25,14,46,15.60
2019,09,25,14,47,15.70
2019,09,25,14,48,15.70
2019,09,25,14,49,15.80
2019,09,25,14,50,15.80
2019,09,25,14,51,15.80
2019,09,25,14,52,15.80
2019,09,25,14,53,15.80
2019,09,25,14,54,15.80
2019,09,25,14,55,15.80
2019,09,25,14,56,15.80
2019,09,25,14,57,15.80
2019,09,25,14,58,15.80
2019,09,25,14,59,15.80
2019,09,25,15,00,15.80
2019,09,25,15,01,15.80
2019,09,25,15,02,15.80
2019,09,25,15,03,15.80
2019,09,25,15,04,15.80
2019,09,25,15,05,15.80
2019,09,25,15,06,15.80
2019,09,25,15,07,15.80
2019,09,25,15,08,15.80
2019,09,25,15,09,15.80
2019,09,25,15,10,15.80
2019,09,25,15,11,15.80
2019,09,25,15,12,15.80
2019,09,25,15,13,15.80
2019,09,25,15,14,15.80
2019,09,25,15,15,15.80
2019,09,25,15,16,15.90
2019,09,25,15,17,15.90
2019,09,25,15,18,15.90
2019,09,25,15,19,15.90
2019,09,25,15,20,16.00
2019,09,25,15,21,16.00
2019,09,25,15,22,16.00
2019,09,25,15,23,16.10
2019,09,25,15,24,16.00
2019,09,25,15,25,16.00
2019,09,25,15,26,16.00
2019,09,25,15,27,16.00
2019,09,25,15,28,15.90
2019,09,25,15,29,15.90
2019,09,25,15,30,15.80
2019,09,25,15,31,15.80
2019,09,25,15,32,15.80
2019,09,25,15,33,15.80
2019,09,25,15,34,15.70
2019,09,25,15,35,15.70
2019,09,25,15,36,15.60
2019,09,25,15,37,15.60
2019,09,25,15,38,15.60
2019,09,25,15,39,15.50
2019,09,25,15,40,15.50
2019,09,25,15,41,15.50
2019,09,25,15,42,15.50
2019,09,25,15,43,15.50
2019,09,25,15,44,15.50
2019,09,25,15,45,15.50
2019,09,25,15,46,15.60
2019,09,25,15,47,15.60
2019,09,25,15,48,15.60
2019,09,25,15,49,15.60
2019,09,25,15,50,15.60
2019,09,25,15,51,15.60
2019,09,25,15,52,15.60
2019,09,25,15,53,15.60
2019,09,25,15,54,15.60
2019,09,25,15,55,15.60
2019,09,25,15,56,15.60
2019,09,25,15,57,15.50
2019,09,25,15,58,15.50
2019,09,25,15,59,15.40
2019,09,25,16,00,15.40
2019,09,25,16,01,15.30
2019,09,25,16,02,15.30
2019,09,25,16,03,15.30
2019,09,25,16,04,15.20
2019,09,25,16,05,15.20
2019,09,25,16,06,15.20
2019,09,25,16,07,15.10
2019,09,25,16,08,15.10
2019,09,25,16,09,15.00
2019,09,25,16,10,15.00
2019,09,25,16,11,15.00
2019,09,25,16,12,14.90
2019,09,25,16,13,14.90
2019,09,25,16,14,14.90
2019,09,25,16,15,14.80
2019,09,25,16,16,14.80
2019,09,25,16,17,14.80
2019,09,25,16,18,14.80
2019,09,25,16,19,14.80
2019,09,25,16,20,14.80
2019,09,25,16,21,14.80
2019,09,25,16,22,14.70
2019,09,25,16,23,14.70
2019,09,25,16,24,14.70
2019,09,25,16,25,14.70
2019,09,25,16,26,14.70
2019,09,25,16,27,14.70
2019,09,25,16,28,14.70
2019,09,25,16,29,14.70
2019,09,25,16,30,14.70
2019,09,25,16,31,14.70
2019,09,25,16,32,14.60
2019,09,25,16,33,14.60
2019,09,25,16,34,14.60
2019,09,25,16,35,14.60
2019,09,25,16,36,14.60
2019,09,25,16,37,14.60
2019,09,25,16,38,14.50
2019,09,25,16,39,14.50
2019,09,25,16,40,14.50
2019,09,25,16,41,14.50
2019,09,25,16,42,14.50
2019,09,25,16,43,14.50
2019,09,25,16,44,14.50
2019,09,25,16,45,14.50
2019,09,25,16,46,14.50
2019,09,25,16,47,14.40
2019,09,25,16,48,14.40
2019,09,25,16,49,14.40
2019,09,25,16,50,14.40
2019,09,25,16,51,14.40
2019,09,25,16,52,14.30
2019,09,25,16,53,14.30
2019,09,25,16,54,14.30
2019,09,25,16,55,14.30
2019,09,25,16,56,14.30
2019,09,25,16,57,14.30
2019,09,25,16,58,14.30
2019,09,25,16,59,14.20
2019,09,25,17,00,14.20
2019,09,25,17,01,14.20
2019,09,25,17,02,14.20
2019,09,25,17,03,14.20
2019,09,25,17,04,14.20
2019,09,25,17,05,14.20
2019,09,25,17,06,14.20
2019,09,25,17,07,14.10
2019,09,25,17,08,14.10
2019,09,25,17,09,14.10
2019,09,25,17,10,14.10
2019,09,25,17,11,14.10
2019,09,25,17,12,14.10
2019,09,25,17,13,14.10
2019,09,25,17,14,14.10
2019,09,25,17,15,14.10
2019,09,25,17,16,14.10
2019,09,25,17,17,14.10
2019,09,25,17,18,14.10
2019,09,25,17,19,14.10
2019,09,25,17,20,14.10
2019,09,25,17,21,14.10
2019,09,25,17,22,14.10
2019,09,25,17,23,14.10
2019,09,25,17,24,14.10
2019,09,25,17,25,14.10
2019,09,25,17,26,14.10
2019,09,25,17,27,14.10
2019,09,25,17,28,14.20
2019,09,25,17,29,14.20
2019,09,25,17,30,14.20
2019,09,25,17,31,14.20
2019,09,25,17,32,14.20
2019,09,25,17,33,14.20
2019,09,25,17,34,14.30
2019,09,25,17,35,14.30
2019,09,25,17,36,14.30
2019,09,25,17,37,14.30
2019,09,25,17,38,14.40
2019,09,25,17,39,14.40
2019,09,25,17,40,14.40
2019,09,25,17,41,14.40
2019,09,25,17,42,14.40